St. Francis, KS

11:24 PM CST on January 16, 2018 (GMT -0600)
Cheyenne County Municipal

Weather History for KSYF - January, 2014

Change the Weather History Date:

Wednesday, January 15, 2014

  Actual Average Record
Temperature  
Mean Temperature 42 °F -  
Max Temperature 59 °F 46 °F 59 °F (2014)
Min Temperature 25 °F 16 °F -1 °F (2018)
Degree Days  
Heating Degree Days 23    
Moisture  
Dew Point 16 °F    
Average Humidity 42    
Maximum Humidity 74    
Minimum Humidity 15    
Precipitation  
Precipitation 0.00 in - - ()
Sea Level Pressure  
Sea Level Pressure 30.07 in    
Wind  
Wind Speed 11 mph (West)    
Max Wind Speed 23 mph    
Max Gust Speed 32 mph    
Visibility 10 miles    
Events      
Averages and records for this station are not official NWS values.
T = Trace of Precipitation, MM = Missing Value Source: NWS Daily Summary

Daily Weather History Graph

Daily Weather History Graph

Search for Another Location

Airport or City:

Trip Planner

Search our weather history database for the weather conditions in past years. The results will help you decide how hot, cold, wet, or windy it might be!

Date:

Astronomy

Jan. 15, 2014 Rise Set
Actual Time 8:06 AM CST 5:47 PM CST
Civil Twilight 7:36 AM CST 6:16 PM CST
Nautical Twilight 7:03 AM CST 6:50 PM CST
Astronomical Twilight 6:31 AM CST 7:22 PM CST
Moon 5:46 PM CST (1/15) 7:23 AM CST (1/15)
Length of Visible Light 10h 39m
Length of Day
9h 40m
Full, 100% of the Moon is Illuminated
Jan 15
Full
Jan 15
Full
Jan 23
Last Quarter
Jan 30
New
Feb 6
First Quarter

Hourly Weather History & Observations

Time (CST) Temp. Windchill Dew Point Humidity Pressure Visibility Wind Dir Wind Speed Gust Speed Precip Events Conditions
12:15 AM 32.0 °F 24.2 °F 13.6 °F 47% 30.27 in 10.0 mi NW 9.2 mph - N/A   Scattered Clouds
12:35 AM 29.7 °F 21.3 °F 13.8 °F 52% 30.28 in 10.0 mi WNW 9.2 mph - N/A   Clear
12:55 AM 29.3 °F 22.3 °F 14.7 °F 55% 30.27 in 10.0 mi West 6.9 mph - N/A   Mostly Cloudy
1:15 AM 28.4 °F 21.2 °F 14.9 °F 57% 30.27 in 10.0 mi West 6.9 mph - N/A   Overcast
1:35 AM 28.4 °F 18.5 °F 15.8 °F 59% 30.26 in 10.0 mi West 11.5 mph - N/A   Overcast
1:55 AM 28.2 °F 19.5 °F 15.8 °F 60% 30.25 in 10.0 mi West 9.2 mph - N/A   Overcast
2:15 AM 27.9 °F 18.4 °F 16.2 °F 62% 30.24 in 10.0 mi West 10.4 mph - N/A   Overcast
2:35 AM 27.5 °F 17.4 °F 16.5 °F 63% 30.24 in 10.0 mi WSW 11.5 mph - N/A   Overcast
2:55 AM 28.0 °F 19.3 °F 16.7 °F 62% 30.24 in 10.0 mi WSW 9.2 mph - N/A   Overcast
3:15 AM 27.9 °F 18.4 °F 16.9 °F 63% 30.24 in 10.0 mi WSW 10.4 mph - N/A   Overcast
3:35 AM 28.0 °F 20.0 °F 17.2 °F 64% 30.23 in 10.0 mi SW 8.1 mph - N/A   Overcast
3:55 AM 28.8 °F 21.7 °F 17.6 °F 63% 30.23 in 10.0 mi SW 6.9 mph - N/A   Overcast
4:15 AM 29.1 °F 23.0 °F 18.0 °F 63% 30.21 in 10.0 mi SW 5.8 mph - N/A   Overcast
4:35 AM 28.9 °F 23.9 °F 18.3 °F 65% 30.20 in 10.0 mi SSW 4.6 mph - N/A   Overcast
4:55 AM 29.3 °F 24.3 °F 18.5 °F 64% 30.19 in 10.0 mi SSW 4.6 mph - N/A   Overcast
5:15 AM 29.3 °F 24.3 °F 18.7 °F 65% 30.19 in 10.0 mi South 4.6 mph - N/A   Overcast
5:35 AM 28.9 °F 22.8 °F 18.5 °F 65% 30.18 in 10.0 mi South 5.8 mph - N/A   Overcast
5:55 AM 28.2 °F 20.2 °F 18.9 °F 68% 30.17 in 10.0 mi South 8.1 mph - N/A   Overcast
6:15 AM 29.3 °F 21.5 °F 19.0 °F 66% 30.17 in 10.0 mi South 8.1 mph - N/A   Overcast
6:35 AM 28.4 °F 19.7 °F 18.9 °F 67% 30.17 in 10.0 mi SSW 9.2 mph - N/A   Mostly Cloudy
6:55 AM 26.8 °F 17.7 °F 18.5 °F 71% 30.16 in 10.0 mi SW 9.2 mph - N/A   Scattered Clouds
7:15 AM 26.8 °F 18.5 °F 18.5 °F 71% 30.15 in 10.0 mi SW 8.1 mph - N/A   Scattered Clouds
7:35 AM 25.9 °F 16.6 °F 18.7 °F 74% 30.14 in 10.0 mi SW 9.2 mph - N/A   Mostly Cloudy
7:55 AM 26.4 °F 17.3 °F 18.9 °F 73% 30.13 in 10.0 mi SSW 9.2 mph - N/A   Scattered Clouds
8:15 AM 26.2 °F 17.1 °F 18.5 °F 73% 30.13 in 10.0 mi SSW 9.2 mph - N/A   Clear
8:35 AM 26.8 °F 18.5 °F 19.0 °F 73% 30.12 in 10.0 mi SW 8.1 mph - N/A   Clear
8:55 AM 29.5 °F 22.5 °F 19.9 °F 68% 30.11 in 10.0 mi SW 6.9 mph - N/A   Clear
9:15 AM 32.5 °F 24.8 °F 20.5 °F 61% 30.11 in 10.0 mi WSW 9.2 mph - N/A   Clear
9:35 AM 32.7 °F 25.7 °F 20.3 °F 60% 30.12 in 10.0 mi WSW 8.1 mph - N/A   Clear
9:55 AM 39.0 °F 30.6 °F 19.8 °F 46% 30.10 in 10.0 mi WSW 15.0 mph - N/A   Clear
10:15 AM 39.9 °F 32.1 °F 20.1 °F 45% 30.10 in 10.0 mi WSW 13.8 mph - N/A   Clear
10:35 AM 40.8 °F 32.9 °F 19.8 °F 43% 30.10 in 10.0 mi WSW 15.0 mph - N/A   Clear
10:55 AM 42.1 °F 34.5 °F 18.5 °F 39% 30.09 in 10.0 mi WSW 15.0 mph 18.4 mph N/A   Clear
11:15 AM 44.2 °F 37.3 °F 17.2 °F 34% 30.08 in 10.0 mi WSW 15.0 mph - N/A   Clear
11:35 AM 46.8 °F - 15.6 °F 29% 30.08 in 10.0 mi WSW 16.1 mph - N/A   Clear
11:55 AM 49.3 °F - 15.4 °F 26% 30.06 in 10.0 mi WSW 18.4 mph 25.3 mph N/A   Mostly Cloudy
12:15 PM 49.6 °F - 15.1 °F 25% 30.04 in 10.0 mi WSW 17.3 mph - N/A   Overcast
12:35 PM 51.3 °F - 14.7 °F 23% 30.03 in 10.0 mi WSW 17.3 mph - N/A   Overcast
12:55 PM 52.3 °F - 14.2 °F 22% 30.01 in 10.0 mi WSW 19.6 mph - N/A   Overcast
1:15 PM 53.6 °F - 13.1 °F 20% 29.99 in 10.0 mi WSW 16.1 mph - N/A   Overcast
1:35 PM 56.1 °F - 12.9 °F 18% 29.98 in 10.0 mi WSW 17.3 mph - N/A   Mostly Cloudy
1:55 PM 58.1 °F - 11.7 °F 16% 29.96 in 10.0 mi WNW 15.0 mph 27.6 mph N/A   Scattered Clouds
2:15 PM 58.5 °F - 11.5 °F 16% 29.94 in 10.0 mi WNW 19.6 mph 26.5 mph N/A   Clear
2:35 PM 58.5 °F - 11.3 °F 16% 29.93 in 10.0 mi WNW 21.9 mph 26.5 mph N/A   Clear
2:55 PM 59.5 °F - 11.3 °F 15% 29.92 in 10.0 mi WNW 23.0 mph 32.2 mph N/A   Clear
3:15 PM 59.0 °F - 12.6 °F 16% 29.93 in 10.0 mi NW 23.0 mph 28.8 mph N/A   Clear
3:35 PM 58.3 °F - 13.3 °F 17% 29.93 in 10.0 mi NW 18.4 mph 25.3 mph N/A   Clear
3:55 PM 56.7 °F - 14.5 °F 19% 29.92 in 10.0 mi WNW 17.3 mph 23.0 mph N/A   Clear
4:15 PM 57.2 °F - 15.3 °F 19% 29.93 in 10.0 mi NNW 18.4 mph 27.6 mph N/A   Clear
4:35 PM 57.6 °F - 15.8 °F 19% 29.92 in 10.0 mi NW 13.8 mph 18.4 mph N/A   Clear
4:55 PM 56.3 °F - 15.3 °F 20% 29.92 in 10.0 mi NNW 16.1 mph 19.6 mph N/A   Clear
5:15 PM 56.3 °F - 12.7 °F 18% 29.92 in 10.0 mi NNW 17.3 mph 31.1 mph N/A   Clear
5:35 PM 53.8 °F - 12.2 °F 19% 29.93 in 10.0 mi North 15.0 mph - N/A   Clear
5:55 PM 51.3 °F - 12.0 °F 21% 29.94 in 10.0 mi NNW 12.7 mph - N/A   Clear
6:15 PM 48.2 °F - 13.3 °F 25% 29.95 in 10.0 mi NW 9.2 mph - N/A   Clear
6:35 PM 47.3 °F - 15.4 °F 28% 29.95 in 10.0 mi WNW 9.2 mph - N/A   Clear
6:55 PM 44.4 °F 39.5 °F 15.6 °F 31% 29.94 in 10.0 mi WNW 9.2 mph - N/A   Clear
7:15 PM 43.3 °F 39.2 °F 16.2 °F 33% 29.95 in 10.0 mi WNW 6.9 mph - N/A   Clear
7:35 PM 44.6 °F 40.2 °F 15.6 °F 31% 29.95 in 10.0 mi West 8.1 mph - N/A   Clear
7:55 PM 42.8 °F 38.6 °F 16.2 °F 34% 29.96 in 10.0 mi West 6.9 mph - N/A   Clear
8:15 PM 41.4 °F 38.4 °F 16.5 °F 37% 29.96 in 10.0 mi West 4.6 mph - N/A   Clear
8:35 PM 42.3 °F 36.8 °F 16.2 °F 35% 29.96 in 10.0 mi WNW 9.2 mph - N/A   Clear
8:55 PM 45.5 °F 39.9 °F 14.9 °F 29% 29.96 in 10.0 mi NW 11.5 mph 17.3 mph N/A   Clear
9:15 PM 46.9 °F - 14.4 °F 27% 29.96 in 10.0 mi NW 17.3 mph 21.9 mph N/A   Clear
9:35 PM 46.2 °F 39.8 °F 14.2 °F 28% 29.96 in 10.0 mi NW 15.0 mph 23.0 mph N/A   Clear
9:55 PM 44.8 °F 37.4 °F 14.5 °F 30% 29.96 in 10.0 mi NW 17.3 mph - N/A   Clear
10:15 PM 45.9 °F 38.3 °F 14.0 °F 28% 29.97 in 10.0 mi NW 19.6 mph - N/A   Clear
10:35 PM 44.2 °F 37.6 °F 14.0 °F 30% 29.97 in 10.0 mi NW 13.8 mph - N/A   Clear
10:55 PM 43.2 °F 37.0 °F 14.0 °F 31% 29.98 in 10.0 mi NW 11.5 mph - N/A   Clear
11:15 PM 43.2 °F 36.2 °F 14.0 °F 31% 29.98 in 10.0 mi NW 13.8 mph - N/A   Clear
11:35 PM 42.8 °F 35.8 °F 13.8 °F 31% 29.98 in 10.0 mi NW 13.8 mph 19.6 mph N/A   Clear
11:55 PM 42.3 °F 35.5 °F 13.6 °F 31% 29.98 in 10.0 mi WNW 12.7 mph - N/A   Clear